EHI
0 0 0 0 0 0 0 0 0 0 0 0 0 0 0 0 0 0 0 0 0 0 0 0 0 0 0 0 0 0 0 0 0 0 0 0 0 0 0 0 0 0 0
0 0 0 0 0 0 0 0 0 0 0 0 0 0 0 0 0 0 0 0 0 0 0 0 0 0 0 0 0 0 0 0 0 0 0 0 0 0 0 0 0 0 0
0 0 0 0 0 0 0 0 0 0 0 0 0 0 0 0 0 0 0 0 0 0 0 0 0 0 0 0 0 0 0 0 0 0 0 0 0 0 0 0 0 0 0
0 0 0 0 0 0 0 0 0 0 0 0 0 0 0 0 0 0 0 0 0 0 0 0 0 0 0 0 0 0 0 0 0 0 0 0 0 0 0 0 0 0 0
0 0 0 0 0 0 0 0 0 0 0 0 0 0 0 0 0 0 0 0 0 0 0 0 0 0 0 0 0 0 0 0 0 0 0 0 0 0 0 0 0 0 0
0 0 0 0 0 0 0 0 0 0 0 0 0 0 0 0 0 0 0 0 0 0 0 0 0 0 0 0 0 0 0 0 0 0 0 0 0 0 0 0 0 0 0
0 0 0 0 0 0 0 0 0 0 0 0 0 0 0 0 0 0 0 0 0 0 0 0 0 0 0 0 0 0 0 0 0 0 0 0 0 0 0 0 0 0 0
0 0 0 0 0 0 0 0 0 0 0 0 0 0 0 0 0 0 0 0 0 0 0 0 0 0 0 0 0 0 0 0 0 0 0 0 0 0 0 0 0 0 0
0 0 0 0 0 0 0 0 0 0 0 0 0 0 0 0 0 0 0 0 0 0 0 0 0 0 0 0 0 0 0 0 0 0 0 0 0 0 0 0 0 0 0
0 0 0 0 0 0 0 0 0 0 0 0 0 0 0 0 0 0 0 0 0 0 0 0 0 0 0 0 0 0 0 0 0 0 0 0 0 0 0 0 0 0 0
0 0 0 0 0 0 0 0 0 0 0 0 0 0 0 0 0 0 0 0 0 0 0 0 0 0 0 0 0 0 0 0 0 0 0 0 0 0 0 0 0 0 0
0 0 0 0 0 0 0 0 0 0 0 0 0 0 0 0 0 0 0 0 0 0 0 0 0 0 0 0 0 0 0 0 0 0 0 0 0 0 0 0 0 0 0
0 0 0 0 0 0 0 0 0 0 0 0 0 0 0 0 0 0 0 0 0 0 0 0 0 0 0 0 0 0 0 0 0 0 0 0 0 0 0 0 0 0 0
0 0 0 0 0 0 0 0 0 0 0 0 0 0 0 0 0 0 0 0 0 0 0 0 0 0 0 0 0 0 0 0 0 0 0 0 0 0 0 0 0 0 0
0 0 0 0 0 0 0 0 0 0 0 0 0 0 0 0 0 0 0 0 0 0 0 0 0 0 0 0 0 0 0 0 0 0 0 0 0 0 0 0 0 0 0
0 0 0 0 0 0 0 0 0 0 0 0 0 0 0 0 0 0 0 0 0 0 0 0 0 0 0 0 0 0 0 0 0 0 0 0 0 0 0 0 0 0 0
0 0 0 0 0 0 0 0 0 0 0 0 0 0 0 0 0 0 0 0 0 0 0 0 0 0 0 0 0 0 0 0 0 0 0 0 0 0 0 0 0 0 0
0 0 0 0 0 0 0 0 0 0 0 0 0 0 0 0 0 0 0 0 0 0 0 0 0 0 0 0 0 0 0 0 0 0 0 0 0 0 0 0 0 0 0
0 0 0 0 0 0 0 0 0 0 0 0 0 0 0 0 0 0 0 0 0 0 0 0 0 0 0 0 0 0 0 0 0 0 0 0 0 0 0 0 0 0 0
0 0 0 0 0 0 0 0 0 0 0 0 0 0 0 0 0 0 0 0 0 0 0 0 0 0 0 0 0 0 0 0 0 0 0 0 0 0 0 0 0 0 0
0 0 0 0 0 0 0 0 0 0 0 0 0 0 0 0 0 0 0 0 0 0 0 0 0 0 0 0 0 0 0 0 0 0 0 0 0 0 0 0 0 0 0
0 0 0 0 0 0 0 0 0 0 0 0 0 0 0 0 0 0 0 0 0 0 0 0 0 0 0 0 0 0 0 0 0 0 0 0 0 0 0 0 0 0 0
0 0 0 0 0 0 0 0 0 0 0 0 0 0 0 0 0 0 0 0 0 0 0 0 0 0 0 0 0 0 0 0 0 0 0 0 0 0 0 0 0 0 0
0 0 0 0 0 0 0 0 0 0 0 0 0 0 0 0 0 0 0 0 0 0 0 0 0 0 0 0 0 0 0 0 0 0 0 0 0 0 0 0 0 0 0
0 0 0 0 0 0 0 0 0 0 0 0 0 0 0 0 0 0 0 0 0 0 0 0 0 0 0 0 0 0 0 0 0 0 0 0 0 0 0 0 0 0 0
0 0 0 0 0 0 0 0 0 0 0 0 0 0 0 0 0 0 0 0 0 0 0 0 0 0 0 0 0 0 0 0 0 0 0 0 0 0 0 0 0 0 0
Wind_Speed
4 5 14 14 13 12 13 11 10 9 7 7 6 5 4 4 4 3 2 1 0 2 4 4 2 1 2 4 5 4 3 4 4 4 4 6 4 2 4 2 1 1 3
5 6 13 13 12 12 12 10 9 9 8 7 7 6 5 3 2 1 0 1 1 2 3 3 3 1 1 3 3 2 2 2 1 2 4 5 6 2 2 1 2 3 5
5 7 10 13 13 13 12 11 10 9 8 8 7 7 7 6 5 3 2 1 1 1 3 6 5 1 1 1 3 2 2 2 3 4 5 3 4 4 4 3 2 4 6
6 7 7 12 14 14 14 12 11 10 9 8 7 7 8 8 7 5 3 2 2 2 3 6 7 2 2 3 3 3 4 4 4 5 3 3 3 6 6 6 5 4 4
7 7 7 13 14 14 13 11 10 10 9 9 8 7 9 9 7 5 3 3 4 3 4 6 6 4 4 5 3 3 4 4 3 4 3 3 3 7 7 8 7 5 4
7 6 7 12 13 13 12 11 10 10 10 9 9 8 9 9 8 7 5 5 5 5 6 7 7 7 7 7 7 6 6 3 1 2 3 3 3 8 9 7 7 7 8
7 6 6 12 14 13 12 12 11 10 10 9 8 8 8 10 9 8 7 6 7 8 8 9 9 9 9 10 9 9 8 3 1 2 3 3 5 10 10 9 9 9 9
7 6 5 12 12 13 13 13 12 11 10 9 9 6 5 8 8 8 7 7 8 9 10 10 10 10 11 11 11 11 10 3 3 3 4 4 7 12 13 11 11 10 10
5 5 5 5 7 11 12 12 12 11 10 10 9 7 4 3 5 7 8 8 9 10 11 11 11 11 11 12 12 12 10 7 3 3 4 4 9 14 15 13 13 13 13
4 4 5 4 4 5 6 10 11 10 9 9 9 8 6 4 4 6 7 8 9 11 12 12 12 12 12 12 12 12 11 9 4 4 4 5 13 16 17 16 15 15 15
4 4 5 5 5 4 4 6 8 8 9 8 7 7 6 3 3 4 6 7 10 12 12 12 13 13 12 10 12 12 10 3 4 4 4 10 16 18 19 19 18 17 17
5 5 5 5 5 5 4 3 3 3 3 4 3 3 3 3 3 4 5 7 10 11 11 13 14 13 9 4 7 9 4 4 4 4 6 16 19 21 21 21 21 20 20
4 4 6 6 6 5 3 3 2 2 2 3 4 4 3 3 2 2 1 3 4 5 5 7 7 4 4 3 4 4 5 4 4 4 7 18 21 23 24 23 23 23 22
4 7 6 7 6 6 5 4 3 3 3 3 4 5 3 2 3 2 2 3 3 2 4 4 4 6 6 6 6 6 7 6 5 5 8 19 22 24 25 26 25 25 25
7 8 8 8 8 7 6 5 4 5 5 5 4 4 5 4 4 4 3 3 4 4 5 5 6 7 7 7 7 8 9 9 9 9 8 18 22 24 25 26 27 27 28
7 8 7 8 9 9 8 7 6 5 5 4 4 5 6 5 5 4 4 4 5 5 6 6 7 7 7 6 8 9 10 9 10 11 10 12 21 24 25 26 28 29 30
6 7 7 8 8 9 9 8 6 5 4 4 5 6 6 5 5 5 5 5 6 5 6 6 6 6 7 7 10 10 10 10 11 12 11 10 11 19 25 28 29 30 31
6 7 5 5 7 8 8 6 5 4 5 4 4 4 5 6 6 5 5 7 6 4 5 5 5 6 8 8 9 9 9 9 11 12 11 11 10 10 17 26 29 30 32
7 7 7 3 3 5 5 4 4 3 4 3 2 2 3 5 5 5 6 7 5 4 5 6 6 6 9 9 9 9 8 9 11 12 13 14 13 13 12 19 26 28 30
7 7 8 7 5 1 1 1 1 1 1 2 2 3 5 4 5 5 5 7 6 5 5 5 8 7 8 10 10 11 10 10 10 11 13 13 13 15 15 15 14 15 25
9 9 10 11 9 5 4 3 2 1 1 1 2 3 4 4 4 3 4 5 5 5 7 7 7 8 8 6 6 8 9 10 11 12 11 12 13 15 14 15 13 12 12
9 10 12 12 11 8 4 3 2 3 3 3 4 7 8 7 6 4 4 4 5 5 6 7 7 6 6 4 4 6 7 5 8 10 10 11 13 12 13 15 14 14 12
10 10 10 11 12 11 8 5 5 5 4 5 6 6 7 8 8 8 7 6 6 5 5 7 6 7 8 6 5 7 8 7 5 5 8 10 11 10 11 11 14 14 14
7 7 9 10 12 11 10 11 11 8 6 5 3 4 6 7 8 9 8 7 7 6 6 6 6 6 7 7 6 5 8 9 10 8 5 6 8 10 11 10 11 13 14
6 7 8 10 12 11 11 10 9 8 4 3 4 7 7 7 8 9 9 8 7 6 7 7 7 7 5 5 6 7 8 8 8 11 13 7 6 6 8 9 9 10 12
7 7 7 11 11 10 11 10 10 9 8 9 9 9 7 5 6 9 9 8 7 7 7 7 7 8 7 7 6 6 6 6 8 8 12 13 11 8 8 8 8 9 9
Wind_Direction
226 202 198 185 180 181 162 156 155 155 159 159 161 175 152 124 105 100 102 117 161 290 287 267 254 153 103 107 106 107 103 91 62 45 15 354 2 80 88 57 202 261 181
174 176 195 183 179 168 159 160 161 166 171 178 174 185 182 167 146 109 270 195 204 295 316 301 253 161 103 115 110 112 132 124 74 334 324 332 330 264 179 249 248 214 184
159 171 193 183 178 170 167 167 169 173 182 193 194 193 192 179 175 196 202 172 197 301 321 329 298 222 10 240 168 170 227 253 282 298 289 287 295 262 212 219 234 168 144
164 166 186 189 187 181 176 174 177 183 191 201 211 209 197 183 179 195 222 235 249 271 297 311 331 343 345 300 191 185 236 254 293 302 278 247 265 259 220 217 213 169 156
161 163 184 196 195 182 179 177 183 191 199 210 220 221 205 191 176 173 203 249 261 261 274 284 304 309 288 282 250 224 252 264 321 321 260 230 245 256 229 218 215 194 200
161 163 185 198 189 180 181 184 188 195 204 213 223 229 214 200 187 181 194 232 246 250 252 259 266 273 275 272 263 254 259 260 7 320 272 247 245 255 238 222 226 226 226
162 165 187 200 190 186 187 190 192 201 204 215 231 243 227 209 204 192 197 220 237 243 247 254 260 262 264 267 270 272 267 223 181 278 261 256 255 250 238 226 227 228 228
162 165 191 206 197 192 194 195 196 201 205 215 234 231 219 224 212 199 208 229 244 250 253 259 264 266 266 265 268 270 271 239 225 266 262 253 255 253 246 231 229 231 230
162 163 188 213 204 197 198 201 203 205 207 213 228 229 203 200 218 221 230 245 256 258 257 259 264 269 270 270 271 271 271 255 218 244 258 250 254 255 255 243 234 234 233
174 181 189 205 203 200 205 206 209 211 210 215 227 238 198 188 215 241 252 252 258 262 261 261 267 273 276 277 274 272 272 270 239 243 258 262 257 254 258 254 240 238 238
195 196 193 200 205 199 201 214 213 213 216 221 234 240 201 195 214 248 259 256 260 269 270 269 272 275 277 279 281 276 271 259 234 235 248 263 263 257 258 262 253 242 242
202 203 195 202 209 203 205 203 211 213 223 224 221 227 205 200 221 237 264 270 272 279 283 280 278 277 284 291 286 284 273 264 251 241 250 265 267 264 262 261 260 250 245
212 212 194 203 208 202 204 196 201 208 220 228 221 217 213 215 238 265 298 303 296 294 291 287 290 286 279 268 263 259 257 258 253 254 256 266 268 266 263 261 258 255 247
231 228 211 204 205 204 203 205 202 205 213 219 220 213 204 214 225 233 235 242 248 248 254 253 251 253 255 253 250 251 251 250 247 250 254 262 263 263 262 261 259 258 255
241 236 220 208 207 203 204 210 208 209 215 217 217 216 208 213 223 224 231 235 238 234 237 244 247 250 252 254 250 247 248 246 248 246 254 257 260 262 264 262 261 260 260
252 248 231 213 208 203 205 208 213 212 217 215 218 220 215 219 226 230 240 242 240 237 239 242 244 249 253 254 257 249 249 248 249 246 245 252 254 257 259 260 258 257 258
295 277 246 225 206 205 210 209 212 210 211 218 222 221 219 220 227 236 248 251 249 243 246 252 254 254 261 256 258 255 252 250 249 248 247 246 250 254 254 256 257 256 256
335 322 288 247 207 205 209 208 208 203 213 226 228 228 228 230 231 238 252 260 256 242 242 250 254 256 260 259 261 261 255 256 254 252 251 250 248 248 251 254 255 256 256
358 356 358 337 245 213 208 205 208 206 223 243 254 256 250 245 240 240 257 267 268 253 247 253 258 247 267 271 267 267 258 253 255 254 252 250 247 247 246 251 251 250 252
20 20 24 28 22 45 115 111 41 349 321 313 296 274 262 254 248 241 258 272 278 270 265 253 262 262 265 274 280 278 270 259 255 253 252 251 249 247 246 248 250 250 249
27 27 28 35 28 46 69 73 71 18 349 350 336 313 308 302 289 264 270 280 280 272 278 276 272 276 275 273 277 279 271 258 254 255 252 252 252 250 246 246 247 245 248
33 32 36 36 34 38 58 77 88 87 58 46 34 34 28 27 21 15 353 332 321 309 306 302 293 287 284 262 257 282 284 264 244 246 248 247 249 250 248 247 247 245 245
36 34 41 38 38 37 41 55 53 50 42 31 25 26 24 33 34 30 23 14 2 357 340 329 318 306 305 295 250 267 288 287 279 250 245 246 246 246 246 246 246 246 245
39 39 47 48 46 41 46 60 64 63 56 26 11 13 15 23 25 19 13 7 360 356 350 342 343 328 319 317 309 270 276 292 297 296 248 249 256 254 253 253 251 248 246
53 54 55 59 54 48 51 56 64 63 55 33 24 23 19 14 16 14 8 2 355 347 339 333 333 331 323 315 315 312 309 305 297 301 301 297 281 270 271 265 262 258 253
62 59 61 66 57 48 53 52 56 54 41 34 24 17 10 3 3 8 360 354 346 341 335 329 325 321 315 309 308 306 308 305 309 304 301 303 298 291 287 282 278 273 265